Time,TemperatureF,DewpointF,PressureIn,WindDirection,WindDirectionDegrees,WindSpeedMPH,WindSpeedGustMPH,Humidity,HourlyPrecipIn,Conditions,Clouds,dailyrainin,SoftwareType,DateUTC
2013-01-26 08:00:00,49.6,49.1,29.96,SSE,148,0.0,0.0,98,0.16,,,0.55,Wunderground v.1.15,2013-01-26 15:00:00,
2013-01-26 08:10:00,49.6,49.1,29.96,SE,142,0.0,0.0,98,0.15,,,0.57,Wunderground v.1.15,2013-01-26 15:10:00,
2013-01-26 08:20:00,49.6,49.1,29.96,SE,127,0.0,0.0,98,0.07,,,0.59,Wunderground v.1.15,2013-01-26 15:20:00,
2013-01-26 08:31:00,49.8,49.3,29.95,WNW,300,0.0,0.0,98,0.09,,,0.60,Wunderground v.1.15,2013-01-26 15:31:00,
2013-01-26 08:40:00,49.9,49.4,29.95,WSW,248,0.0,1.0,98,0.05,,,0.61,Wunderground v.1.15,2013-01-26 15:40:00,
2013-01-26 08:50:00,50.1,49.6,29.95,SSE,162,1.0,1.0,98,0.05,,,0.61,Wunderground v.1.15,2013-01-26 15:50:00,
2013-01-26 09:01:00,50.2,49.7,29.95,SE,145,0.0,2.0,98,0.05,,,0.62,Wunderground v.1.15,2013-01-26 16:01:00,
2013-01-26 09:10:00,50.3,49.8,29.95,SE,130,1.0,1.0,98,0.04,,,0.63,Wunderground v.1.15,2013-01-26 16:10:00,
2013-01-26 09:20:00,50.4,49.9,29.95,SSW,209,0.0,0.0,98,0.06,,,0.64,Wunderground v.1.15,2013-01-26 16:20:00,
2013-01-26 09:30:00,50.5,50.0,29.95,SSE,158,1.0,2.0,98,0.05,,,0.65,Wunderground v.1.15,2013-01-26 16:30:00,
2013-01-26 09:40:00,50.6,50.1,29.95,SSE,149,0.0,0.0,98,0.07,,,0.66,Wunderground v.1.15,2013-01-26 16:40:00,
2013-01-26 09:50:00,50.7,50.2,29.95,SE,132,1.0,1.0,98,0.06,,,0.67,Wunderground v.1.15,2013-01-26 16:50:00,
2013-01-26 10:01:00,50.9,50.4,29.95,SSE,156,1.0,1.0,98,0.04,,,0.67,Wunderground v.1.15,2013-01-26 17:01:00,
2013-01-26 10:10:00,50.9,50.4,29.95,SSE,165,1.0,2.0,98,0.04,,,0.68,Wunderground v.1.15,2013-01-26 17:10:00,
2013-01-26 10:20:00,51.0,50.5,29.95,SE,146,1.0,1.0,98,0.04,,,0.69,Wunderground v.1.15,2013-01-26 17:20:00,
2013-01-26 10:30:00,51.1,50.6,29.95,SSW,195,0.0,0.0,98,0.05,,,0.70,Wunderground v.1.15,2013-01-26 17:30:00,
2013-01-26 10:40:00,51.2,50.7,29.94,WNW,299,0.0,0.0,98,0.09,,,0.71,Wunderground v.1.15,2013-01-26 17:40:00,
2013-01-26 10:50:00,51.3,50.8,29.94,SSE,150,0.0,1.0,98,0.05,,,0.72,Wunderground v.1.15,2013-01-26 17:50:00,
2013-01-26 11:00:00,51.3,50.8,29.94,East,91,1.0,1.0,98,0.06,,,0.73,Wunderground v.1.15,2013-01-26 18:00:00,
2013-01-26 11:10:00,51.4,50.9,29.94,SSE,155,0.0,1.0,98,0.07,,,0.74,Wunderground v.1.15,2013-01-26 18:10:00,
2013-01-26 11:20:00,51.5,51.0,29.94,SE,145,0.0,0.0,98,0.06,,,0.75,Wunderground v.1.15,2013-01-26 18:20:00,
2013-01-26 11:30:00,51.7,51.2,29.94,SSE,157,0.0,1.0,98,0.05,,,0.76,Wunderground v.1.15,2013-01-26 18:30:00,
2013-01-26 11:40:00,51.9,51.4,29.93,SSE,161,0.0,2.0,98,0.05,,,0.77,Wunderground v.1.15,2013-01-26 18:40:00,
2013-01-26 11:50:00,51.9,51.4,29.93,SE,127,0.0,0.0,98,0.07,,,0.78,Wunderground v.1.15,2013-01-26 18:50:00,
2013-01-26 12:00:00,51.9,51.4,29.93,SE,129,0.0,0.0,98,0.05,,,0.79,Wunderground v.1.15,2013-01-26 19:00:00,
2013-01-26 12:10:00,52.0,51.5,29.92,NE,44,0.0,0.0,98,0.07,,,0.80,Wunderground v.1.15,2013-01-26 19:10:00,
2013-01-26 12:20:00,52.0,51.5,29.92,NE,44,0.0,1.0,98,0.12,,,0.82,Wunderground v.1.15,2013-01-26 19:20:00,
2013-01-26 12:30:00,51.9,51.4,29.92,ENE,71,0.0,1.0,98,0.12,,,0.85,Wunderground v.1.15,2013-01-26 19:30:00,
2013-01-26 12:40:00,51.9,51.4,29.92,East,88,1.0,1.0,98,0.08,,,0.86,Wunderground v.1.15,2013-01-26 19:40:00,
2013-01-26 12:50:00,51.9,51.4,29.91,East,86,0.0,0.0,98,0.08,,,0.87,Wunderground v.1.15,2013-01-26 19:50:00,
2013-01-26 13:00:00,51.9,51.4,29.91,East,96,0.0,0.0,98,0.04,,,0.88,Wunderground v.1.15,2013-01-26 20:00:00,
2013-01-26 13:10:00,51.8,51.3,29.90,SSE,148,1.0,1.0,98,0.16,,,0.90,Wunderground v.1.15,2013-01-26 20:10:00,
2013-01-26 13:20:00,51.7,51.2,29.90,SSE,160,0.0,0.0,98,0.11,,,0.92,Wunderground v.1.15,2013-01-26 20:20:00,
2013-01-26 13:30:00,51.9,49.9,29.89,SSW,198,3.0,3.0,93,0.09,,,0.93,Wunderground v.1.15,2013-01-26 20:30:00,
2013-01-26 13:40:00,51.9,49.9,29.89,SSE,167,4.0,5.0,93,0.04,,,0.94,Wunderground v.1.15,2013-01-26 20:40:00,
2013-01-26 13:50:00,51.8,49.8,29.89,SSE,160,4.0,4.0,93,0.09,,,0.95,Wunderground v.1.15,2013-01-26 20:50:00,
2013-01-26 14:00:00,51.8,49.5,29.89,SSE,160,5.0,5.0,92,0.00,,,0.95,Wunderground v.1.15,2013-01-26 21:00:00,
2013-01-26 14:10:00,51.7,49.7,29.89,South,170,3.0,6.0,93,0.00,,,0.96,Wunderground v.1.15,2013-01-26 21:10:00,
2013-01-26 14:20:00,51.3,49.6,29.89,South,176,3.0,3.0,94,0.00,,,0.96,Wunderground v.1.15,2013-01-26 21:20:00,
2013-01-26 14:31:00,51.1,49.7,29.89,SSE,166,2.0,2.0,95,0.00,,,0.96,Wunderground v.1.15,2013-01-26 21:31:00,
2013-01-26 14:40:00,51.0,49.6,29.89,SSE,162,3.0,3.0,95,0.00,,,0.97,Wunderground v.1.15,2013-01-26 21:40:00,
2013-01-26 14:50:00,51.3,49.6,29.89,SSW,198,2.0,4.0,94,0.00,,,0.97,Wunderground v.1.15,2013-01-26 21:50:00,
2013-01-26 15:00:00,51.8,49.8,29.89,South,175,4.0,4.0,93,0.00,,,0.97,Wunderground v.1.15,2013-01-26 22:00:00,
2013-01-26 15:10:00,52.1,49.6,29.90,SE,131,6.0,6.0,91,0.00,,,0.97,Wunderground v.1.15,2013-01-26 22:10:00,
2013-01-26 15:20:00,52.4,50.1,29.89,SSE,166,6.0,6.0,92,0.00,,,0.97,Wunderground v.1.15,2013-01-26 22:20:00,
2013-01-26 15:30:00,53.1,50.5,29.90,SSW,203,5.0,6.0,91,0.00,,,0.98,Wunderground v.1.15,2013-01-26 22:30:00,
2013-01-26 15:40:00,52.5,49.7,29.90,SSE,167,5.0,7.0,90,0.00,,,0.98,Wunderground v.1.15,2013-01-26 22:40:00,
2013-01-26 15:50:00,51.9,48.8,29.90,South,169,5.0,13.0,89,0.00,,,0.98,Wunderground v.1.15,2013-01-26 22:50:00,
2013-01-26 16:00:00,51.4,48.6,29.91,SSE,160,6.0,6.0,90,0.00,,,0.98,Wunderground v.1.15,2013-01-26 23:00:00,
2013-01-26 16:10:00,51.0,48.5,29.91,ESE,121,5.0,6.0,91,0.00,,,0.98,Wunderground v.1.15,2013-01-26 23:10:00,
2013-01-26 16:20:00,50.6,48.4,29.91,South,181,4.0,7.0,92,0.00,,,0.98,Wunderground v.1.15,2013-01-26 23:20:00,
2013-01-26 16:30:00,50.2,48.0,29.92,SSE,157,4.0,4.0,92,0.00,,,0.98,Wunderground v.1.15,2013-01-26 23:30:00,
2013-01-26 16:40:00,50.0,48.1,29.92,SSE,153,4.0,5.0,93,0.00,,,0.98,Wunderground v.1.15,2013-01-26 23:40:00,
2013-01-26 16:50:00,49.9,48.2,29.92,SSE,158,2.0,4.0,94,0.00,,,0.98,Wunderground v.1.15,2013-01-26 23:50:00,
2013-01-26 17:00:00,49.8,48.1,29.92,South,179,3.0,3.0,94,0.00,,,0.98,Wunderground v.1.15,2013-01-27 00:00:00,
2013-01-26 17:10:00,49.8,47.9,29.92,SSE,167,3.0,5.0,93,0.00,,,0.98,Wunderground v.1.15,2013-01-27 00:10:00,
2013-01-26 17:20:00,49.8,48.1,29.92,SW,214,4.0,4.0,94,0.00,,,0.98,Wunderground v.1.15,2013-01-27 00:20:00,
2013-01-26 17:30:00,49.6,47.9,29.93,SSW,212,3.0,3.0,94,0.00,,,0.99,Wunderground v.1.15,2013-01-27 00:30:00,
2013-01-26 17:40:00,49.3,47.9,29.93,SE,144,2.0,2.0,95,0.00,,,0.99,Wunderground v.1.15,2013-01-27 00:40:00,
2013-01-26 17:50:00,49.3,47.9,29.93,South,169,4.0,4.0,95,0.00,,,0.99,Wunderground v.1.15,2013-01-27 00:50:00,
2013-01-26 18:20:00,49.1,47.7,29.94,South,176,5.0,5.0,95,0.00,,,1.00,Wunderground v.1.15,2013-01-27 01:20:00,
2013-01-26 18:31:00,49.1,47.7,29.95,SSE,164,4.0,4.0,95,0.00,,,1.00,Wunderground v.1.15,2013-01-27 01:31:00,
2013-01-26 18:40:00,49.0,47.9,29.95,SSE,158,3.0,3.0,96,0.00,,,1.00,Wunderground v.1.15,2013-01-27 01:40:00,
2013-01-26 18:50:00,49.1,47.7,29.95,SSE,163,2.0,4.0,95,0.00,,,1.00,Wunderground v.1.15,2013-01-27 01:50:00,
2013-01-26 19:10:00,49.1,47.7,29.95,SE,141,3.0,3.0,95,0.00,,,1.00,Wunderground v.1.15,2013-01-27 02:10:00,
2013-01-26 19:20:00,49.0,47.9,29.96,South,173,2.0,3.0,96,0.00,,,1.00,Wunderground v.1.15,2013-01-27 02:20:00,
2013-01-26 19:40:00,49.0,47.9,29.97,SE,141,1.0,2.0,96,0.00,,,1.01,Wunderground v.1.15,2013-01-27 02:40:00,
2013-01-26 19:50:00,49.0,47.9,29.97,SSW,198,2.0,2.0,96,0.00,,,1.01,Wunderground v.1.15,2013-01-27 02:50:00,
2013-01-26 20:00:00,48.9,47.8,29.97,SE,142,2.0,2.0,96,0.00,,,1.01,Wunderground v.1.15,2013-01-27 03:00:00,
2013-01-26 20:10:00,49.0,47.9,29.97,South,172,2.0,2.0,96,0.00,,,1.01,Wunderground v.1.15,2013-01-27 03:10:00,
2013-01-26 20:20:00,49.0,47.9,29.97,SSE,158,2.0,2.0,96,0.00,,,1.01,Wunderground v.1.15,2013-01-27 03:20:00,
2013-01-26 20:40:00,48.8,47.7,29.96,South,176,2.0,2.0,96,0.00,,,1.01,Wunderground v.1.15,2013-01-27 03:40:00,
2013-01-26 20:50:00,48.7,47.6,29.97,WSW,240,1.0,1.0,96,0.00,,,1.01,Wunderground v.1.15,2013-01-27 03:50:00,
2013-01-26 21:00:00,48.4,47.3,29.97,NNW,334,1.0,1.0,96,0.00,,,1.01,Wunderground v.1.15,2013-01-27 04:00:00,
2013-01-26 21:10:00,48.2,47.4,29.97,NNW,342,1.0,1.0,97,0.00,,,1.01,Wunderground v.1.15,2013-01-27 04:10:00,
2013-01-26 21:20:00,48.0,47.2,29.97,NE,45,0.0,0.0,97,0.00,,,1.01,Wunderground v.1.15,2013-01-27 04:20:00,
2013-01-26 21:31:00,47.9,47.1,29.97,WNW,293,0.0,0.0,97,0.00,,,1.01,Wunderground v.1.15,2013-01-27 04:31:00,
2013-01-26 21:40:00,47.9,47.1,29.98,WNW,297,0.0,0.0,97,0.00,,,1.01,Wunderground v.1.15,2013-01-27 04:40:00,
2013-01-26 21:50:00,48.0,47.2,29.98,SW,219,0.0,0.0,97,0.00,,,1.01,Wunderground v.1.15,2013-01-27 04:50:00,
2013-01-26 22:00:00,48.2,47.4,29.98,SW,229,1.0,2.0,97,0.00,,,1.01,Wunderground v.1.15,2013-01-27 05:00:00,
2013-01-26 22:10:00,48.4,47.6,29.99,South,189,2.0,2.0,97,0.00,,,1.01,Wunderground v.1.15,2013-01-27 05:10:00,
2013-01-26 22:20:00,48.7,47.6,29.99,WSW,248,1.0,1.0,96,0.00,,,1.01,Wunderground v.1.15,2013-01-27 05:20:00,